ETD913 OMAA-EHAM

Flight info

Callsign ETD913
Flight time N/A
Altitude 32000
Route BOSEV N563 ALPOB L768 RABLA M556 OBROS L768 AAR/N0482F340 L768 MODAD B544 ALE M861 NISAP UM861 BELSU UA17 BAG UW75 DEREL UL602 MAKOL DCT KOMAN DCT BUDOP DCT PATAK DCT TURIS DCT MAKAL DCT ELMEK DCT VEXIL DCT KATCE DCT NORKU
Aircraft B77L/H-SDE1E2E3FGHIJ2J3J4J5M1RWXY/LB1D1

Departure

Time N/A
Airport Zayed International Airport (OMAA)

Arrival

Time 2026-05-04 17:46
Airport Amsterdam Airport Schiphol (EHAM)
Time Latitude Longitude Altitude Speed Heading
2026-05-04 12:47 30.45637 41.98414 33932 ft 432 kts 294°
2026-05-04 12:47 30.47237 41.95462 33929 ft 432 kts 294°
2026-05-04 12:48 30.50434 41.89554 33922 ft 433 kts 294°
2026-05-04 12:48 30.53612 41.83675 33936 ft 433 kts 294°
2026-05-04 12:49 30.56804 41.77760 33926 ft 433 kts 294°
2026-05-04 12:49 30.59994 41.71840 33936 ft 432 kts 293°
2026-05-04 12:50 30.63176 41.65927 33930 ft 432 kts 293°
2026-05-04 12:50 30.66350 41.60021 33934 ft 430 kts 293°
2026-05-04 12:51 30.69511 41.54128 33957 ft 429 kts 293°
2026-05-04 12:51 30.72661 41.48248 33941 ft 428 kts 293°
2026-05-04 12:52 30.75796 41.42385 33927 ft 426 kts 293°
2026-05-04 12:52 30.78913 41.36547 33934 ft 424 kts 293°
2026-05-04 12:53 30.82019 41.30722 33944 ft 423 kts 293°
2026-05-04 12:53 30.85112 41.24911 33941 ft 422 kts 293°
2026-05-04 12:54 30.88197 41.19108 33936 ft 421 kts 293°
2026-05-04 12:54 30.91225 41.13326 33947 ft 421 kts 290°
2026-05-04 12:55 30.94025 41.07300 33937 ft 422 kts 290°
2026-05-04 12:55 30.96787 41.01285 33935 ft 419 kts 290°
2026-05-04 12:56 30.99530 40.95316 33949 ft 417 kts 290°
2026-05-04 12:56 31.02268 40.89360 33950 ft 416 kts 290°
2026-05-04 12:57 31.05005 40.83400 33948 ft 417 kts 290°
2026-05-04 12:57 31.07745 40.77425 33945 ft 418 kts 290°
2026-05-04 12:58 31.10489 40.71434 33945 ft 419 kts 290°
2026-05-04 12:58 31.13241 40.65418 33944 ft 421 kts 290°
2026-05-04 12:59 31.15999 40.59378 33944 ft 421 kts 290°
2026-05-04 12:59 31.18755 40.53335 33947 ft 422 kts 290°
2026-05-04 13:00 31.21493 40.47321 33980 ft 422 kts 290°
2026-05-04 13:00 31.24250 40.41256 33961 ft 421 kts 290°
2026-05-04 13:01 31.26993 40.35211 33956 ft 420 kts 290°
2026-05-04 13:01 31.29722 40.29186 33956 ft 419 kts 289°
2026-05-04 13:02 31.32445 40.23167 33979 ft 418 kts 289°
2026-05-04 13:02 31.35153 40.17169 33963 ft 416 kts 289°
2026-05-04 13:03 31.37852 40.11182 33961 ft 415 kts 289°
2026-05-04 13:03 31.40540 40.05210 33961 ft 414 kts 289°
2026-05-04 13:04 31.43219 39.99246 33968 ft 414 kts 289°
2026-05-04 13:04 31.45442 39.94292 33971 ft 413 kts 289°
2026-05-04 13:05 31.48109 39.88339 33976 ft 413 kts 289°
2026-05-04 13:05 31.50777 39.82374 33977 ft 413 kts 289°
2026-05-04 13:06 31.53440 39.76408 33970 ft 414 kts 289°
2026-05-04 13:06 31.56113 39.70413 33986 ft 416 kts 289°
2026-05-04 13:07 31.58794 39.64388 33990 ft 417 kts 289°
2026-05-04 13:07 31.61468 39.58373 33989 ft 419 kts 289°
2026-05-04 13:08 31.64167 39.52289 33984 ft 421 kts 289°
2026-05-04 13:08 31.66869 39.46191 33993 ft 422 kts 289°
2026-05-04 13:09 31.69574 39.40074 33992 ft 422 kts 289°
2026-05-04 13:09 31.72282 39.33941 34009 ft 422 kts 289°
2026-05-04 13:10 31.74987 39.27806 33993 ft 422 kts 289°
2026-05-04 13:10 31.77693 39.21689 33981 ft 422 kts 291°
2026-05-04 13:10 31.79386 39.18867 33989 ft 435 kts 302°
2026-05-04 13:11 31.81544 39.16310 34017 ft 445 kts 308°
2026-05-04 13:11 31.83991 39.14016 33994 ft 456 kts 315°
2026-05-04 13:11 31.86808 39.12170 34040 ft 468 kts 322°
2026-05-04 13:12 31.92684 39.08857 33991 ft 467 kts 323°
2026-05-04 13:12 31.98475 39.05498 33982 ft 462 kts 322°
2026-05-04 13:13 32.04205 39.02098 33978 ft 460 kts 322°
2026-05-04 13:13 32.09922 38.98731 34016 ft 459 kts 321°
2026-05-04 13:14 32.15628 38.95371 33997 ft 458 kts 321°
2026-05-04 13:14 32.21339 38.92000 33971 ft 459 kts 321°
2026-05-04 13:15 32.27052 38.88621 34004 ft 460 kts 321°
2026-05-04 13:15 32.32789 38.85222 33981 ft 461 kts 321°
2026-05-04 13:16 32.38501 38.81835 33980 ft 463 kts 321°
2026-05-04 13:16 32.44272 38.78408 33969 ft 464 kts 321°
2026-05-04 13:17 32.50050 38.74973 33964 ft 465 kts 321°
2026-05-04 13:17 32.55858 38.71569 33943 ft 470 kts 325°
2026-05-04 13:17 32.58988 38.70258 33951 ft 484 kts 333°
2026-05-04 13:18 32.62309 38.69366 34003 ft 495 kts 338°
2026-05-04 13:18 32.65783 38.68919 33954 ft 509 kts 346°
2026-05-04 13:18 32.69331 38.68771 33950 ft 511 kts 347°
2026-05-04 13:19 32.76457 38.68570 33933 ft 512 kts 347°
2026-05-04 13:19 32.78518 38.68501 33925 ft 511 kts 347°
2026-05-04 13:22 32.80322 38.68434 33929 ft 511 kts 346°
2026-05-04 13:22 32.87431 38.68120 33926 ft 511 kts 346°
2026-05-04 13:23 32.94548 38.67782 33918 ft 512 kts 346°
2026-05-04 13:23 33.01669 38.67452 33908 ft 512 kts 346°
2026-05-04 13:24 33.08787 38.67122 33929 ft 512 kts 346°
2026-05-04 13:24 33.15917 38.66790 33910 ft 512 kts 346°
2026-05-04 13:25 33.26552 38.66294 33927 ft 512 kts 346°
2026-05-04 13:25 33.33674 38.65971 33893 ft 512 kts 347°
2026-05-04 13:26 33.40797 38.65696 33904 ft 512 kts 347°
2026-05-04 13:26 33.47759 38.64815 33957 ft 493 kts 335°
2026-05-04 13:27 33.54199 38.62494 33881 ft 473 kts 324°
2026-05-04 13:27 33.60229 38.59394 33877 ft 471 kts 324°
2026-05-04 13:28 33.66250 38.56293 33879 ft 471 kts 324°
2026-05-04 13:28 33.72285 38.53215 33883 ft 471 kts 324°
2026-05-04 13:29 33.78305 38.50153 33879 ft 475 kts 324°
2026-05-04 13:29 33.84405 38.47051 33873 ft 477 kts 324°
2026-05-04 13:30 33.90522 38.43937 33874 ft 478 kts 324°
2026-05-04 13:30 33.96660 38.40807 33865 ft 479 kts 324°
2026-05-04 13:31 34.02808 38.37666 33857 ft 480 kts 324°
2026-05-04 13:31 34.08956 38.34520 33856 ft 480 kts 324°
2026-05-04 13:32 34.15109 38.31367 33854 ft 480 kts 324°
2026-05-04 13:32 34.21250 38.28215 33851 ft 479 kts 324°
2026-05-04 13:33 34.27378 38.25061 33847 ft 479 kts 324°
2026-05-04 13:33 34.33523 38.21896 33845 ft 479 kts 324°
2026-05-04 13:34 34.39655 38.18731 33868 ft 480 kts 324°
2026-05-04 13:34 34.45764 38.15574 33851 ft 480 kts 324°
2026-05-04 13:35 34.55000 38.10759 33851 ft 481 kts 324°
2026-05-04 13:36 34.61104 38.07447 33853 ft 480 kts 324°
2026-05-04 13:36 34.67208 38.04111 33853 ft 481 kts 324°
2026-05-04 13:37 34.73279 38.00801 33854 ft 482 kts 324°
2026-05-04 13:37 34.79406 37.97465 33871 ft 482 kts 324°
2026-05-04 13:38 34.85539 37.94121 33885 ft 484 kts 325°
2026-05-04 13:38 34.91687 37.90765 33878 ft 485 kts 325°
2026-05-04 13:39 34.97849 37.87395 33883 ft 486 kts 325°
2026-05-04 13:39 35.04026 37.84010 33882 ft 487 kts 326°
2026-05-04 13:40 35.10215 37.80615 33881 ft 488 kts 326°
2026-05-04 13:40 35.16407 37.77212 33885 ft 488 kts 326°
2026-05-04 13:41 35.22600 37.73802 33893 ft 488 kts 326°
2026-05-04 13:41 35.28762 37.70402 33941 ft 489 kts 326°
2026-05-04 13:42 35.38065 37.65263 33888 ft 487 kts 326°
2026-05-04 13:42 35.44223 37.61854 33883 ft 485 kts 326°
2026-05-04 13:43 35.50356 37.58451 33914 ft 483 kts 326°
2026-05-04 13:43 35.56477 37.55047 33897 ft 483 kts 326°
2026-05-04 13:44 35.62601 37.51636 33893 ft 484 kts 326°
2026-05-04 13:44 35.68697 37.48236 33892 ft 485 kts 326°
2026-05-04 13:45 35.74851 37.44798 33910 ft 486 kts 328°
2026-05-04 13:45 35.81023 37.41345 33892 ft 487 kts 328°
2026-05-04 13:46 35.87194 37.37886 33891 ft 487 kts 328°
2026-05-04 13:46 35.93373 37.34417 33899 ft 488 kts 328°
2026-05-04 13:47 35.99563 37.30983 33883 ft 487 kts 328°
2026-05-04 13:47 36.05753 37.27616 33906 ft 485 kts 329°
2026-05-04 13:48 36.11910 37.24249 33901 ft 482 kts 329°
2026-05-04 13:48 36.17948 37.20713 33907 ft 476 kts 323°
2026-05-04 13:49 36.23315 37.16114 33918 ft 467 kts 316°
2026-05-04 13:49 36.28496 37.11216 33902 ft 470 kts 316°
2026-05-04 13:50 36.33744 37.06330 33889 ft 474 kts 317°
2026-05-04 13:50 36.39008 37.01449 33882 ft 476 kts 316°
2026-05-04 13:51 36.44307 36.96467 33871 ft 479 kts 317°
2026-05-04 13:51 36.49621 36.91436 33870 ft 482 kts 317°
2026-05-04 13:52 36.57659 36.83824 33846 ft 484 kts 317°
2026-05-04 13:53 36.63005 36.78757 33843 ft 481 kts 317°
2026-05-04 13:53 36.68304 36.73724 33861 ft 477 kts 317°
2026-05-04 13:54 36.76138 36.66262 33850 ft 472 kts 317°
2026-05-04 13:55 36.83082 36.59588 33849 ft 470 kts 316°
2026-05-04 13:55 36.91688 36.51218 33848 ft 474 kts 317°
2026-05-04 13:56 36.96061 36.46968 33841 ft 476 kts 317°
2026-05-04 13:57 37.03889 36.39374 33847 ft 478 kts 317°
2026-05-04 13:58 37.14412 36.29141 33840 ft 479 kts 317°
2026-05-04 13:58 37.22305 36.21435 33833 ft 479 kts 317°
2026-05-04 13:59 37.27518 36.16336 33837 ft 477 kts 317°
2026-05-04 14:00 37.35362 36.08642 33837 ft 476 kts 317°
2026-05-04 14:00 37.43182 36.00952 33834 ft 475 kts 317°
2026-05-04 14:01 37.48382 35.95826 33854 ft 475 kts 317°
2026-05-04 14:02 37.56190 35.88111 33851 ft 477 kts 317°
2026-05-04 14:02 37.61412 35.82940 33855 ft 478 kts 317°
2026-05-04 14:03 37.66644 35.77752 33854 ft 478 kts 317°
2026-05-04 14:03 37.71874 35.72553 33874 ft 479 kts 317°
2026-05-04 14:04 37.79736 35.64721 33870 ft 481 kts 317°
2026-05-04 14:04 37.84996 35.59469 33871 ft 482 kts 317°
2026-05-04 14:05 37.92890 35.51570 33860 ft 483 kts 317°
2026-05-04 14:06 37.98155 35.46288 33866 ft 483 kts 318°
2026-05-04 14:06 38.03386 35.41031 33863 ft 483 kts 318°
2026-05-04 14:07 38.08644 35.35735 33858 ft 482 kts 318°
2026-05-04 14:07 38.13902 35.30434 33857 ft 482 kts 318°
2026-05-04 14:08 38.19149 35.25130 33849 ft 482 kts 318°
2026-05-04 14:08 38.24393 35.19817 33851 ft 482 kts 319°
2026-05-04 14:09 38.32274 35.11817 33830 ft 483 kts 319°
2026-05-04 14:10 38.40167 35.03786 33832 ft 485 kts 319°
2026-05-04 14:10 38.45450 34.98410 33839 ft 486 kts 319°
2026-05-04 14:11 38.50730 34.93027 33831 ft 486 kts 319°
2026-05-04 14:11 38.58650 34.84931 33829 ft 486 kts 319°
2026-05-04 14:12 38.63926 34.79522 33831 ft 486 kts 319°
2026-05-04 14:13 38.71838 34.71393 33835 ft 486 kts 320°
2026-05-04 14:13 38.77069 34.66005 33834 ft 486 kts 320°
2026-05-04 14:14 38.82325 34.60580 33833 ft 485 kts 320°
2026-05-04 14:14 38.90199 34.52434 33822 ft 484 kts 320°
2026-05-04 14:15 39.00667 34.41567 33826 ft 483 kts 320°
2026-05-04 14:16 39.08492 34.33415 33801 ft 482 kts 319°
2026-05-04 14:17 39.15806 34.24648 33824 ft 478 kts 308°
2026-05-04 14:18 39.22129 34.14774 33823 ft 478 kts 309°
2026-05-04 14:19 39.30676 34.01556 33826 ft 480 kts 309°
2026-05-04 14:19 39.34967 33.94922 33828 ft 482 kts 310°
2026-05-04 14:20 39.39270 33.88252 33816 ft 483 kts 310°
2026-05-04 14:20 39.43565 33.81581 33819 ft 483 kts 310°
2026-05-04 14:21 39.49931 33.71479 33798 ft 482 kts 309°
2026-05-04 14:21 39.54066 33.64728 33812 ft 481 kts 310°
2026-05-04 14:22 39.58229 33.57968 33803 ft 479 kts 309°
2026-05-04 14:22 39.62463 33.51303 33816 ft 478 kts 311°
2026-05-04 14:23 39.68863 33.41359 33811 ft 478 kts 310°
2026-05-04 14:24 39.73103 33.34720 33816 ft 478 kts 310°
2026-05-04 14:24 39.77350 33.28040 33818 ft 479 kts 310°
2026-05-04 14:25 39.81564 33.21396 33827 ft 480 kts 311°
2026-05-04 14:25 39.87929 33.11333 33826 ft 480 kts 311°
2026-05-04 14:26 39.92161 33.04630 33838 ft 479 kts 311°
2026-05-04 14:26 39.96391 32.97916 33842 ft 478 kts 311°
2026-05-04 14:27 40.00603 32.91211 33848 ft 478 kts 311°
2026-05-04 14:27 40.04813 32.84511 33840 ft 477 kts 313°
2026-05-04 14:28 40.09542 32.78501 33846 ft 473 kts 324°
2026-05-04 14:28 40.14869 32.73477 33842 ft 473 kts 326°
2026-05-04 14:29 40.25533 32.63501 33851 ft 471 kts 326°
2026-05-04 14:30 40.30837 32.58468 33863 ft 470 kts 326°
2026-05-04 14:31 40.38784 32.50906 33869 ft 470 kts 327°
2026-05-04 14:32 40.49359 32.40812 33881 ft 469 kts 327°
2026-05-04 14:32 40.54630 32.35767 33883 ft 468 kts 327°
2026-05-04 14:33 40.59877 32.30697 33902 ft 468 kts 326°
2026-05-04 14:33 40.65083 32.25543 33895 ft 468 kts 326°
2026-05-04 14:34 40.70134 32.20084 33903 ft 472 kts 319°
2026-05-04 14:34 40.74380 32.13509 33897 ft 478 kts 308°
2026-05-04 14:35 40.78027 32.06167 33927 ft 478 kts 307°
2026-05-04 14:35 40.81622 31.98788 33921 ft 478 kts 307°
2026-05-04 14:36 40.85228 31.91439 33926 ft 475 kts 308°
2026-05-04 14:36 40.88838 31.84122 33918 ft 474 kts 308°
2026-05-04 14:37 40.92433 31.76832 33951 ft 473 kts 308°
2026-05-04 14:37 40.96016 31.69545 33935 ft 472 kts 308°
2026-05-04 14:38 40.99573 31.62289 33933 ft 473 kts 308°
2026-05-04 14:38 41.03155 31.54969 33950 ft 475 kts 307°
2026-05-04 14:39 41.06756 31.47590 33920 ft 478 kts 307°
2026-05-04 14:39 41.10367 31.40172 33931 ft 479 kts 307°
2026-05-04 14:40 41.15785 31.29004 33929 ft 480 kts 307°
2026-05-04 14:40 41.19395 31.21542 33935 ft 480 kts 307°
2026-05-04 14:41 41.23001 31.14070 33934 ft 480 kts 307°
2026-05-04 14:42 41.30187 30.99125 33899 ft 479 kts 307°
2026-05-04 14:42 41.33763 30.91659 33927 ft 478 kts 307°
2026-05-04 14:43 41.37311 30.84235 33933 ft 478 kts 307°
2026-05-04 14:43 41.40884 30.76742 33937 ft 479 kts 307°
2026-05-04 14:44 41.44451 30.69258 33929 ft 478 kts 307°
2026-05-04 14:44 41.48038 30.61793 33932 ft 478 kts 308°
2026-05-04 14:45 41.51025 30.55576 33930 ft 479 kts 308°
2026-05-04 14:45 41.54611 30.48084 33930 ft 479 kts 308°
2026-05-04 14:46 41.58187 30.40587 33947 ft 478 kts 308°
2026-05-04 14:46 41.61749 30.33099 33950 ft 477 kts 308°
2026-05-04 14:47 41.65302 30.25610 33926 ft 476 kts 308°
2026-05-04 14:47 41.68845 30.18126 33939 ft 475 kts 308°
2026-05-04 14:48 41.72376 30.10651 33952 ft 475 kts 308°
2026-05-04 14:48 41.75883 30.03206 33955 ft 475 kts 308°
2026-05-04 14:49 41.79407 29.95709 33953 ft 475 kts 308°
2026-05-04 14:49 41.82929 29.88197 33969 ft 476 kts 308°
2026-05-04 14:50 41.86448 29.80670 33965 ft 477 kts 308°
2026-05-04 14:50 41.89978 29.73104 33951 ft 478 kts 308°
2026-05-04 14:51 41.93498 29.65537 33971 ft 478 kts 308°
2026-05-04 14:51 41.97020 29.57947 33980 ft 479 kts 307°
2026-05-04 14:52 42.00544 29.50333 33982 ft 480 kts 308°
2026-05-04 14:52 42.04063 29.42711 33980 ft 479 kts 307°
2026-05-04 14:53 42.07581 29.35072 33992 ft 480 kts 307°
2026-05-04 14:53 42.11070 29.27477 33996 ft 480 kts 307°
2026-05-04 14:54 42.14576 29.19823 33983 ft 480 kts 306°
2026-05-04 14:54 42.18261 29.12371 33993 ft 474 kts 314°
2026-05-04 14:55 42.22592 29.05697 34010 ft 472 kts 316°
2026-05-04 14:55 42.26953 28.99077 33995 ft 472 kts 316°
2026-05-04 14:56 42.31291 28.92419 33997 ft 472 kts 315°
2026-05-04 14:56 42.35616 28.85723 34006 ft 473 kts 315°
2026-05-04 14:57 42.39946 28.78994 34004 ft 474 kts 315°
2026-05-04 14:57 42.44244 28.72297 34007 ft 474 kts 315°
2026-05-04 14:58 42.48572 28.65542 34014 ft 475 kts 315°
2026-05-04 14:58 42.52892 28.58784 34012 ft 475 kts 315°
2026-05-04 14:59 42.57213 28.52010 33996 ft 474 kts 315°
2026-05-04 15:00 42.63673 28.41853 34014 ft 473 kts 314°
2026-05-04 15:00 42.67971 28.35076 34020 ft 473 kts 314°
2026-05-04 15:01 42.74414 28.24885 34012 ft 473 kts 314°
2026-05-04 15:01 42.78703 28.18085 34015 ft 474 kts 314°
2026-05-04 15:02 42.82966 28.11308 34029 ft 474 kts 314°
2026-05-04 15:02 42.87255 28.04473 34014 ft 475 kts 313°
2026-05-04 15:03 42.91545 27.97622 34022 ft 475 kts 313°
2026-05-04 15:03 42.95840 27.90746 34021 ft 476 kts 313°
2026-05-04 15:04 43.00134 27.83856 34022 ft 477 kts 313°
2026-05-04 15:04 43.04427 27.76951 34019 ft 476 kts 313°
2026-05-04 15:05 43.08704 27.70054 34011 ft 474 kts 313°
2026-05-04 15:05 43.12962 27.63171 34016 ft 472 kts 313°
2026-05-04 15:06 43.17199 27.56308 34004 ft 471 kts 312°
2026-05-04 15:07 43.23494 27.46082 34025 ft 468 kts 312°
2026-05-04 15:07 43.27687 27.39249 34017 ft 467 kts 312°
2026-05-04 15:08 43.31863 27.32429 34022 ft 466 kts 312°
2026-05-04 15:08 43.36065 27.25551 34025 ft 474 kts 311°
2026-05-04 15:09 43.40326 27.18561 34024 ft 477 kts 311°
2026-05-04 15:09 43.44583 27.11556 34024 ft 476 kts 311°
2026-05-04 15:10 43.50943 27.01060 34027 ft 475 kts 311°
2026-05-04 15:11 43.57300 26.90538 34033 ft 477 kts 311°
2026-05-04 15:11 43.61555 26.83467 34038 ft 479 kts 311°
2026-05-04 15:12 43.65781 26.76433 34035 ft 479 kts 310°
2026-05-04 15:12 43.70027 26.69344 34029 ft 478 kts 310°
2026-05-04 15:13 43.74256 26.62267 34035 ft 476 kts 310°
2026-05-04 15:13 43.78462 26.55213 34026 ft 474 kts 310°
2026-05-04 15:14 43.82647 26.48179 34038 ft 472 kts 310°
2026-05-04 15:14 43.86808 26.41163 34039 ft 471 kts 309°
2026-05-04 15:15 43.90965 26.34140 34039 ft 470 kts 309°
2026-05-04 15:15 43.95103 26.27130 34040 ft 469 kts 309°
2026-05-04 15:16 44.01330 26.16707 34042 ft 470 kts 311°
2026-05-04 15:17 44.07768 26.06404 34040 ft 471 kts 311°
2026-05-04 15:17 44.14181 25.96073 34034 ft 469 kts 311°
2026-05-04 15:18 44.18423 25.89188 34033 ft 467 kts 311°
2026-05-04 15:19 44.24730 25.78912 34032 ft 463 kts 310°
2026-05-04 15:19 44.31007 25.68652 34035 ft 464 kts 310°
2026-05-04 15:20 44.35207 25.61767 34054 ft 466 kts 310°
2026-05-04 15:20 44.39416 25.54851 34031 ft 468 kts 310°
2026-05-04 15:21 44.43605 25.47950 34047 ft 469 kts 309°
2026-05-04 15:22 44.49936 25.37490 34048 ft 469 kts 310°
2026-05-04 15:22 44.56249 25.27019 34035 ft 468 kts 310°
2026-05-04 15:23 44.60438 25.20051 34032 ft 466 kts 310°
2026-05-04 15:23 44.64608 25.13097 34030 ft 464 kts 310°
2026-05-04 15:24 44.72897 24.99224 34036 ft 462 kts 309°
2026-05-04 15:25 44.76993 24.92342 34025 ft 461 kts 309°
2026-05-04 15:26 44.83152 24.81963 34038 ft 460 kts 309°
2026-05-04 15:26 44.89302 24.71562 34018 ft 460 kts 309°
2026-05-04 15:27 44.95440 24.61145 34025 ft 461 kts 309°
2026-05-04 15:28 45.01583 24.50679 34030 ft 461 kts 308°
2026-05-04 15:29 45.07718 24.40185 34031 ft 462 kts 309°
2026-05-04 15:30 45.22058 24.15508 34051 ft 465 kts 310°
2026-05-04 15:31 45.28215 24.04850 34070 ft 465 kts 310°
2026-05-04 15:32 45.37715 23.88327 34053 ft 462 kts 311°
2026-05-04 15:34 45.47881 23.70526 34080 ft 465 kts 311°
2026-05-04 15:34 45.53998 23.59766 34073 ft 466 kts 311°
2026-05-04 15:35 45.60122 23.48949 34073 ft 468 kts 311°
2026-05-04 15:36 45.66219 23.38139 34064 ft 467 kts 311°
2026-05-04 15:36 45.70285 23.30906 34052 ft 466 kts 311°
2026-05-04 15:37 45.74341 23.23673 34062 ft 465 kts 311°
2026-05-04 15:37 45.78383 23.16447 34055 ft 465 kts 311°
2026-05-04 15:38 45.82418 23.09214 34054 ft 464 kts 311°
2026-05-04 15:38 45.86442 23.01983 34048 ft 463 kts 311°
2026-05-04 15:39 45.90456 22.94751 34057 ft 462 kts 311°
2026-05-04 15:40 45.96452 22.83911 34061 ft 462 kts 311°
2026-05-04 15:40 46.00443 22.76675 34061 ft 462 kts 311°
2026-05-04 15:41 46.04399 22.69483 34056 ft 461 kts 311°
2026-05-04 15:41 46.08366 22.62250 34066 ft 460 kts 310°
2026-05-04 15:42 46.12322 22.55021 34068 ft 459 kts 310°
2026-05-04 15:42 46.16250 22.47757 34072 ft 459 kts 309°
2026-05-04 15:43 46.20038 22.40332 34068 ft 460 kts 308°
2026-05-04 15:43 46.23799 22.32864 34073 ft 460 kts 308°
2026-05-04 15:44 46.27573 22.25405 34075 ft 460 kts 308°
2026-05-04 15:44 46.31360 22.17933 34076 ft 460 kts 308°
2026-05-04 15:45 46.35143 22.10455 34072 ft 461 kts 308°
2026-05-04 15:45 46.38921 22.02965 34081 ft 461 kts 308°
2026-05-04 15:46 46.42701 21.95451 34073 ft 461 kts 308°
2026-05-04 15:46 46.46474 21.87928 34078 ft 461 kts 308°
2026-05-04 15:47 46.50219 21.80442 34070 ft 461 kts 308°
2026-05-04 15:47 46.53979 21.72905 34075 ft 460 kts 308°
2026-05-04 15:48 46.57724 21.65378 34076 ft 460 kts 308°
2026-05-04 15:48 46.63330 21.54074 34076 ft 459 kts 308°
2026-05-04 15:49 46.67057 21.46535 34078 ft 458 kts 308°
2026-05-04 15:49 46.70767 21.39007 34079 ft 457 kts 308°
2026-05-04 15:50 46.74469 21.31479 34080 ft 456 kts 308°
2026-05-04 15:50 46.78158 21.23956 34081 ft 456 kts 308°
2026-05-04 15:51 46.81833 21.16438 34072 ft 454 kts 308°
2026-05-04 15:51 46.85496 21.08925 34077 ft 454 kts 308°
2026-05-04 15:52 46.89130 21.01453 34073 ft 453 kts 308°
2026-05-04 15:52 46.92777 20.93933 34077 ft 453 kts 308°
2026-05-04 15:53 46.96423 20.86397 34065 ft 454 kts 308°
2026-05-04 15:53 47.00069 20.78837 34065 ft 454 kts 307°
2026-05-04 15:54 47.03713 20.71261 34067 ft 455 kts 307°
2026-05-04 15:54 47.07355 20.63670 34069 ft 455 kts 307°
2026-05-04 15:55 47.11000 20.56052 34072 ft 456 kts 307°
2026-05-04 15:55 47.14618 20.48468 34065 ft 456 kts 307°
2026-05-04 15:56 47.18254 20.40825 34044 ft 456 kts 307°
2026-05-04 15:56 47.21886 20.33169 34042 ft 456 kts 307°
2026-05-04 15:57 47.25508 20.25514 34032 ft 456 kts 307°
2026-05-04 15:57 47.29129 20.17841 34060 ft 456 kts 307°
2026-05-04 15:58 47.32746 20.10153 34064 ft 456 kts 307°
2026-05-04 15:58 47.36357 20.02456 34048 ft 456 kts 307°
2026-05-04 15:59 47.39965 19.94745 34063 ft 456 kts 307°
2026-05-04 15:59 47.43566 19.87025 34061 ft 457 kts 306°
2026-05-04 16:00 47.47166 19.79289 34056 ft 457 kts 306°
2026-05-04 16:00 47.50766 19.71533 34056 ft 457 kts 306°
2026-05-04 16:01 47.54359 19.63766 34050 ft 458 kts 306°
2026-05-04 16:01 47.57953 19.55974 34039 ft 458 kts 306°
2026-05-04 16:02 47.61522 19.48217 34047 ft 459 kts 305°
2026-05-04 16:03 47.66915 19.36450 34048 ft 461 kts 305°
2026-05-04 16:03 47.70512 19.28576 34045 ft 461 kts 305°
2026-05-04 16:04 47.74106 19.20685 34042 ft 460 kts 305°
2026-05-04 16:04 47.79475 19.08853 34036 ft 459 kts 305°
2026-05-04 16:05 47.83031 19.00985 34030 ft 458 kts 305°
2026-05-04 16:06 47.88357 18.89169 34028 ft 458 kts 304°
2026-05-04 16:07 47.95436 18.73378 34025 ft 458 kts 304°
2026-05-04 16:08 48.02462 18.57613 34026 ft 457 kts 303°
2026-05-04 16:08 48.07739 18.45709 34295 ft 462 kts 303°
2026-05-04 16:09 48.11230 18.37806 35321 ft 452 kts 303°
2026-05-04 16:09 48.14701 18.29930 35927 ft 453 kts 303°
2026-05-04 16:10 48.18192 18.21982 36027 ft 459 kts 303°
2026-05-04 16:11 48.25133 18.06114 35999 ft 451 kts 303°
2026-05-04 16:12 48.35400 17.82463 36020 ft 451 kts 302°
2026-05-04 16:13 48.42236 17.66599 35992 ft 452 kts 302°
2026-05-04 16:14 48.49041 17.50717 35992 ft 452 kts 302°
2026-05-04 16:16 48.57535 17.30761 35987 ft 452 kts 302°
2026-05-04 16:17 48.65982 17.10768 35977 ft 450 kts 302°
2026-05-04 16:18 48.72707 16.94742 35965 ft 451 kts 302°
2026-05-04 16:19 48.81060 16.74702 35969 ft 450 kts 301°
2026-05-04 16:20 48.89359 16.54642 35959 ft 447 kts 301°
2026-05-04 16:22 48.97572 16.34641 35959 ft 445 kts 301°
2026-05-04 16:23 49.07342 16.10649 35975 ft 445 kts 300°
2026-05-04 16:25 49.16558 15.87818 35970 ft 446 kts 300°
2026-05-04 16:26 49.27911 15.59420 35966 ft 447 kts 300°
2026-05-04 16:28 49.35973 15.39067 35966 ft 446 kts 300°
2026-05-04 16:29 49.47165 15.10548 35965 ft 446 kts 299°
2026-05-04 16:31 49.55141 14.90032 35964 ft 447 kts 298°
2026-05-04 16:32 49.64666 14.65325 35961 ft 446 kts 298°
2026-05-04 16:33 49.70976 14.48826 35960 ft 446 kts 298°
2026-05-04 16:34 49.75670 14.36485 35969 ft 446 kts 298°
2026-05-04 16:35 49.85054 14.11632 35956 ft 446 kts 297°
2026-05-04 16:36 49.89748 13.99115 35962 ft 449 kts 297°
2026-05-04 16:37 49.94455 13.86501 35959 ft 451 kts 297°
2026-05-04 16:38 50.00744 13.69554 35953 ft 452 kts 297°
2026-05-04 16:39 50.08499 13.48500 35947 ft 447 kts 297°
2026-05-04 16:40 50.14633 13.31720 35943 ft 444 kts 296°
2026-05-04 16:41 50.22242 13.10756 35975 ft 444 kts 296°
2026-05-04 16:43 50.29837 12.89654 35968 ft 447 kts 296°
2026-05-04 16:43 50.34379 12.76953 35966 ft 449 kts 296°
2026-05-04 16:45 50.43791 12.51460 35969 ft 451 kts 298°
2026-05-04 16:46 50.52032 12.30555 35962 ft 448 kts 298°
2026-05-04 16:47 50.58501 12.13827 35961 ft 447 kts 298°
2026-05-04 16:48 50.64944 11.97056 35956 ft 447 kts 298°
2026-05-04 16:49 50.71353 11.80269 35963 ft 449 kts 297°
2026-05-04 16:50 50.77777 11.63332 35965 ft 450 kts 297°
2026-05-04 16:51 50.82592 11.50565 35967 ft 451 kts 297°
2026-05-04 16:52 50.88998 11.33480 35975 ft 450 kts 297°
2026-05-04 16:53 50.93757 11.20715 35962 ft 450 kts 297°
2026-05-04 16:54 51.00090 11.03629 35965 ft 448 kts 296°
2026-05-04 16:55 51.09515 10.77983 35974 ft 448 kts 296°
2026-05-04 16:56 51.17325 10.56535 35971 ft 448 kts 296°
2026-05-04 16:57 51.21999 10.43615 35952 ft 449 kts 296°
2026-05-04 16:58 51.27889 10.26088 35951 ft 448 kts 292°
2026-05-04 17:00 51.36028 9.99110 35958 ft 449 kts 291°
2026-05-04 17:01 51.42795 9.76616 35957 ft 449 kts 291°
2026-05-04 17:02 51.48180 9.58567 35967 ft 448 kts 291°
2026-05-04 17:03 51.52189 9.45038 35967 ft 447 kts 291°
2026-05-04 17:03 51.56183 9.31482 35949 ft 447 kts 291°
2026-05-04 17:04 51.61484 9.13370 35935 ft 448 kts 291°
2026-05-04 17:05 51.66760 8.95209 35955 ft 448 kts 291°
2026-05-04 17:06 51.70699 8.81557 35963 ft 448 kts 291°
2026-05-04 17:07 51.74185 8.69410 35971 ft 448 kts 290°
2026-05-04 17:07 51.77217 8.58793 35964 ft 448 kts 290°
2026-05-04 17:08 51.81115 8.45078 35964 ft 447 kts 290°
2026-05-04 17:09 51.83703 8.35924 35960 ft 447 kts 290°
2026-05-04 17:09 51.86280 8.26776 35973 ft 447 kts 290°
2026-05-04 17:10 51.92684 8.03880 35962 ft 446 kts 290°
2026-05-04 17:11 51.95234 7.94701 35968 ft 447 kts 290°
2026-05-04 17:12 51.98623 7.82446 35975 ft 447 kts 289°
2026-05-04 17:12 52.01510 7.71979 35582 ft 432 kts 289°
2026-05-04 17:13 52.04736 7.60199 34424 ft 421 kts 288°
2026-05-04 17:14 52.08228 7.47375 33026 ft 409 kts 288°
2026-05-04 17:14 52.09370 7.43170 32605 ft 405 kts 288°
2026-05-04 17:14 52.11616 7.34874 31747 ft 397 kts 288°
2026-05-04 17:15 52.12720 7.30781 31331 ft 393 kts 288°
2026-05-04 17:15 52.14896 7.22696 30531 ft 386 kts 288°
2026-05-04 17:16 52.17029 7.14744 29687 ft 380 kts 288°
2026-05-04 17:16 52.20152 7.03054 28460 ft 369 kts 288°
2026-05-04 17:17 52.21170 6.99237 28064 ft 366 kts 288°
2026-05-04 17:17 52.25813 6.88983 26945 ft 391 kts 306°
2026-05-04 17:18 52.27566 6.85602 26541 ft 389 kts 306°
2026-05-04 17:18 52.30976 6.78832 25751 ft 383 kts 305°
2026-05-04 17:19 52.34312 6.72109 25011 ft 377 kts 306°
2026-05-04 17:19 52.37598 6.65485 24217 ft 373 kts 306°
2026-05-04 17:20 52.40844 6.58928 23463 ft 369 kts 306°
2026-05-04 17:20 52.44050 6.52438 22649 ft 363 kts 306°
2026-05-04 17:20 52.45624 6.49235 22268 ft 357 kts 304°
2026-05-04 17:21 52.47197 6.41893 21583 ft 342 kts 273°
2026-05-04 17:21 52.47544 6.34059 20891 ft 346 kts 272°
2026-05-04 17:22 52.47717 6.30192 20529 ft 343 kts 273°
2026-05-04 17:22 52.47897 6.26308 20192 ft 340 kts 273°
2026-05-04 17:23 52.48450 6.14803 19182 ft 336 kts 273°
2026-05-04 17:23 52.48635 6.10987 18844 ft 336 kts 273°
2026-05-04 17:23 52.49001 6.03343 18159 ft 336 kts 273°
2026-05-04 17:24 52.49182 5.99522 17779 ft 336 kts 273°
2026-05-04 17:24 52.49711 5.88215 16738 ft 325 kts 274°
2026-05-04 17:25 52.49881 5.84538 16409 ft 320 kts 273°
2026-05-04 17:25 52.50210 5.77347 15775 ft 313 kts 273°
2026-05-04 17:26 52.50531 5.70243 15157 ft 313 kts 274°
2026-05-04 17:26 52.51011 5.59451 14218 ft 315 kts 274°
2026-05-04 17:27 52.50302 5.52646 13592 ft 298 kts 250°
2026-05-04 17:27 52.48885 5.46312 13006 ft 293 kts 250°
2026-05-04 17:28 52.47519 5.40104 12462 ft 289 kts 250°
2026-05-04 17:29 52.45513 5.30906 11659 ft 282 kts 250°
2026-05-04 17:29 52.43530 5.21806 10887 ft 284 kts 250°
2026-05-04 17:30 52.41544 5.12716 10081 ft 276 kts 250°
2026-05-04 17:31 52.40261 5.06863 9567 ft 270 kts 250°
2026-05-04 17:31 52.38374 4.98280 8809 ft 264 kts 250°
2026-05-04 17:32 52.37140 4.92693 8325 ft 261 kts 250°
2026-05-04 17:33 52.35283 4.84294 7595 ft 263 kts 250°
2026-05-04 17:33 52.34663 4.81506 7346 ft 257 kts 250°
2026-05-04 17:34 52.33400 4.73595 6632 ft 222 kts 283°
2026-05-04 17:34 52.33774 4.71191 6464 ft 218 kts 283°
2026-05-04 17:35 52.34613 4.64199 5797 ft 193 kts 262°
2026-05-04 17:35 52.33434 4.60166 5583 ft 199 kts 239°
2026-05-04 17:35 52.32711 4.58319 5365 ft 186 kts 238°
2026-05-04 17:36 52.32034 4.56596 5168 ft 175 kts 238°
2026-05-04 17:36 52.31395 4.54962 5033 ft 169 kts 239°
2026-05-04 17:36 52.30759 4.53328 4922 ft 173 kts 239°
2026-05-04 17:36 52.30108 4.51648 4748 ft 176 kts 239°
2026-05-04 17:37 52.29454 4.49966 4578 ft 175 kts 239°
2026-05-04 17:37 52.28803 4.48288 4394 ft 174 kts 239°
2026-05-04 17:37 52.28156 4.46625 4246 ft 173 kts 239°
2026-05-04 17:37 52.27441 4.45047 4043 ft 172 kts 225°
2026-05-04 17:38 52.26541 4.43756 3932 ft 174 kts 221°
2026-05-04 17:38 52.25608 4.42459 3812 ft 178 kts 222°
2026-05-04 17:38 52.24662 4.41149 3614 ft 177 kts 222°
2026-05-04 17:38 52.23745 4.39896 3593 ft 171 kts 222°
2026-05-04 17:39 52.21642 4.38135 3580 ft 179 kts 172°
2026-05-04 17:39 52.20530 4.38986 3604 ft 179 kts 137°
2026-05-04 17:39 52.19745 4.40567 3622 ft 181 kts 123°
2026-05-04 17:40 52.19025 4.42264 3619 ft 180 kts 123°
2026-05-04 17:40 52.18392 4.44001 3448 ft 179 kts 105°
2026-05-04 17:40 52.18464 4.45901 3251 ft 164 kts 61°
2026-05-04 17:40 52.18984 4.47551 3170 ft 167 kts 60°
2026-05-04 17:41 52.19505 4.49156 2997 ft 154 kts 58°
2026-05-04 17:41 52.20031 4.50612 2854 ft 152 kts 57°
2026-05-04 17:41 52.20589 4.52099 2743 ft 155 kts 56°
2026-05-04 17:41 52.21156 4.53582 2585 ft 154 kts 56°
2026-05-04 17:42 52.21719 4.55045 2456 ft 151 kts 55°
2026-05-04 17:42 52.22272 4.56482 2305 ft 147 kts 55°
2026-05-04 17:42 52.22816 4.57891 2174 ft 149 kts 56°
2026-05-04 17:42 52.23364 4.59317 2053 ft 149 kts 54°
2026-05-04 17:43 52.23908 4.60731 1871 ft 144 kts 53°
2026-05-04 17:43 52.24440 4.62107 1678 ft 143 kts 56°
2026-05-04 17:43 52.24968 4.63482 1476 ft 144 kts 54°
2026-05-04 17:43 52.25498 4.64856 1290 ft 144 kts 55°
2026-05-04 17:44 52.26033 4.66249 1097 ft 144 kts 53°
2026-05-04 17:44 52.26561 4.67624 887 ft 140 kts 54°
2026-05-04 17:44 52.27079 4.68968 697 ft 141 kts 52°
2026-05-04 17:44 52.27602 4.70331 518 ft 143 kts 55°
2026-05-04 17:45 52.28130 4.71713 323 ft 143 kts 56°
2026-05-04 17:45 52.28656 4.73078 143 ft 142 kts 58°
2026-05-04 17:45 52.29178 4.74430 8 ft 135 kts 58°
2026-05-04 17:45 52.29603 4.75536 2 ft 89 kts 57°
2026-05-04 17:46 52.29837 4.76136 -2 ft 36 kts 58°
2026-05-04 17:46 52.29946 4.76429 -1 ft 30 kts 57°
2026-05-04 17:46 52.30056 4.76714 1 ft 30 kts 58°
2026-05-04 17:46 52.30166 4.77003 -1 ft 30 kts 58°
2026-05-04 17:47 52.30277 4.77292 -3 ft 30 kts 58°
2026-05-04 17:47 52.30295 4.77530 2 ft 16 kts 143°
2026-05-04 17:47 52.30189 4.77510 0 ft 16 kts 208°
2026-05-04 17:47 52.30111 4.77383 1 ft 16 kts 232°
2026-05-04 17:48 52.30051 4.77231 2 ft 16 kts 238°
2026-05-04 17:48 52.29994 4.77076 5 ft 16 kts 239°
2026-05-04 17:48 52.29934 4.76924 4 ft 16 kts 232°
2026-05-04 17:48 52.29854 4.76800 1 ft 16 kts 227°
2026-05-04 17:49 52.29797 4.76650 1 ft 9 kts 238°
2026-05-04 17:49 52.29765 4.76568 1 ft 9 kts 237°
2026-05-04 17:49 52.29733 4.76488 1 ft 9 kts 237°
2026-05-04 17:49 52.29692 4.76421 1 ft 9 kts 201°
2026-05-04 17:50 52.29669 4.76423 1 ft 3 kts 161°
2026-05-04 17:50 52.29657 4.76445 1 ft 3 kts 123°
2026-05-04 17:50 52.29647 4.76467 1 ft 3 kts 133°
2026-05-04 17:50 52.29634 4.76487 1 ft 3 kts 140°
2026-05-04 17:51 52.29619 4.76504 1 ft 3 kts 145°
2026-05-04 17:51 52.29614 4.76509 1 ft 0 kts 146°